Regional Weather Roundup
Issued by NWS

Home | Current Version | Previous Version | Text Only | Print | Product List | Glossary Off
Versions: 1 2 3 4 5 6 7 8 9 10 11 12 13 14 15 16 17 18 19 20 21 22 23 24 25 26 27 28 29 30 31 32 33 34 35 36 37 38 39 40 41 42 43 44 45 46 47 48 49 50

000
ASUS43 KBIS 041501
RWRND

NORTH DAKOTA REGIONAL WEATHER ROUNDUP
NATIONAL WEATHER SERVICE BISMARCK ND
900 AM CST WED MAR 04 2015

NOTE: "FAIR" INDICATES FEW OR NO CLOUDS BELOW 12,000 FEET WITH NO
SIGNIFICANT WEATHER AND/OR OBSTRUCTIONS TO VISIBILITY.


NDZ001>003-009>011-017-041600-
NORTHWEST NORTH DAKOTA

CITY           SKY/WX    TMP DP  RH WIND       PRES   REMARKS
WILLISTON      SUNNY     -9 -18  64 NW13      30.31R WCI -29
MINOT          FAIR     -11 -20  64 NW16      30.26R WCI -34
MINOT AFB      SUNNY    -12 -20  68 NW18      30.26R WCI -37
$$

NDZ018>021-031>035-040>046-041600-
SOUTHWEST NORTH DAKOTA

CITY           SKY/WX    TMP DP  RH WIND       PRES   REMARKS
BISMARCK       SUNNY     -3 -14  59 NW18G26   30.28R WCI -25
DICKINSON      SUNNY     -3 -11  68 NW17G24   30.19R WCI -24
GARRISON         N/A    -10 -18  67 NW21      30.25R WCI -35
HETTINGER ARPT SUNNY     -1 -10  65 NW15G25   30.22R WCI -21
$$

NDZ004>008-012>016-024-026-027-054-041600-
NORTHEAST NORTH DAKOTA

CITY           SKY/WX    TMP DP  RH WIND       PRES   REMARKS
GRAND FORKS    SUNNY     -5 -14  65 NW15      30.24R WCI -26
GRND FRKS AFB  SUNNY     -5 -17  58 NW17      30.24R WCI -27
DEVILS LAKE    SUNNY     -9 -18  64 NW16      30.20R WCI -32
$$

NDZ022-023-025-028>030-036>039-047>053-041600-
SOUTHEAST NORTH DAKOTA

CITY           SKY/WX    TMP DP  RH WIND       PRES   REMARKS
FARGO          SUNNY     -2 -12  62 NW17      30.24R WCI -23
JAMESTOWN      SUNNY     -6 -14  68 NW20G28   30.21R WCI -30
$$




USA.gov is the U.S. government's official web portal to all federal, state and local government web resources and services.